| time (UTC) | temp F | wind direction | speed MPH | gust MPH | rain 1hr in | rain 24hr in | rain mn in | humidity % | barometer mb |
| 20260831184609 | 64 | 218 | 0.0 | 0.0 | 0.00 | 0.00 | 0.00 | 27 | 1013.2 |
| 20260831183046 | 64 | 232 | 0.0 | 0.0 | 0.00 | 0.00 | 0.00 | 13 | 1013.3 |
| 20260831181542 | 65 | 267 | 0.0 | 0.0 | 0.00 | 0.00 | 0.00 | 3 | 1013.2 |
| 20260831180019 | 65 | 146 | 0.0 | 0.0 | 0.00 | 0.00 | 0.00 | 3 | 1013.2 |
| 20260831174515 | 64 | 91 | 0.0 | 0.0 | 0.00 | 0.00 | 0.00 | 3 | 1013.1 |
| 20260831173056 | 64 | 276 | 0.0 | 0.0 | 0.00 | 0.00 | 0.00 | 3 | 1013.1 |
| 20260831171549 | 63 | 226 | 0.0 | 0.0 | 0.00 | 0.00 | 0.00 | 3 | 1013.0 |
| 20260831170026 | 62 | 226 | 0.0 | 0.0 | 0.00 | 0.00 | 0.00 | 3 | 1012.8 |
| 20260831164523 | 62 | 266 | 0.0 | 0.0 | 0.00 | 0.00 | 0.00 | 3 | 1012.8 |
| 20260831163107 | 61 | 227 | 0.0 | 0.0 | 0.00 | 0.00 | 0.00 | 3 | 1012.7 |
| 20260831161556 | 60 | 81 | 0.0 | 0.0 | 0.00 | 0.00 | 0.00 | 3 | 1012.6 |
| 20260831160040 | 58 | 96 | 0.0 | 0.0 | 0.00 | 0.00 | 0.00 | 3 | 1012.6 |
| 20260831154531 | 58 | 41 | 0.0 | 0.0 | 0.00 | 0.00 | 0.00 | 3 | 1012.4 |
| 20260831153009 | 57 | 211 | 0.0 | 0.0 | 0.00 | 0.00 | 0.00 | 3 | 1012.5 |
| 20260831151504 | 57 | 231 | 0.0 | 0.0 | 0.00 | 0.00 | 0.00 | 3 | 1012.4 |
| 20260831150043 | 57 | 223 | 0.0 | 0.0 | 0.00 | 0.00 | 0.00 | 3 | 1012.2 |
| 20260831144538 | 0 | 0.0 | 0.0 | 0.00 | 0.00 | 0.00 | 1012.0 | ||
| 20260831143018 | 0 | 0.0 | 0.0 | 0.00 | 0.00 | 0.00 | 1011.8 | ||
| 20260831141512 | 0 | 0.0 | 0.0 | 0.00 | 0.00 | 0.00 | 1011.5 | ||
| 20260831140050 | 0 | 0.0 | 0.0 | 0.00 | 0.00 | 0.00 | 1011.5 | ||
| 20260831134546 | 0 | 0.0 | 0.0 | 0.00 | 0.00 | 0.00 | 1011.3 | ||
| 20260831133026 | 0 | 0.0 | 0.0 | 0.00 | 0.00 | 0.00 | 1011.3 | ||
| 20260831131621 | 0 | 0.0 | 0.0 | 0.00 | 0.00 | 0.00 | 1011.3 | ||
| 20260831130113 | 0 | 0.0 | 0.0 | 0.00 | 0.00 | 0.00 | 1011.3 | ||
| 20260831124557 | 0 | 0.0 | 0.0 | 0.00 | 0.00 | 0.00 | 1011.2 | ||
| 20260831123033 | 0 | 0.0 | 0.0 | 0.00 | 0.00 | 0.00 | 1011.2 | ||
| 20260831121531 | 0 | 0.0 | 0.0 | 0.00 | 0.00 | 0.00 | 1011.3 | ||
| 20260831120012 | 0 | 0.0 | 0.0 | 0.00 | 0.00 | 0.00 | 1011.4 | ||
| 20260831114508 | 0 | 0.0 | 0.0 | 0.00 | 0.00 | 0.00 | 1011.3 | ||
| 20260831113007 | 0 | 0.0 | 0.0 | 0.00 | 0.00 | 0.00 | 1011.1 | ||
| 20260831111602 | 0 | 0.0 | 0.0 | 0.00 | 0.00 | 0.00 | 1011.1 | ||
| 20260831110100 | 0 | 0.0 | 0.0 | 0.00 | 0.00 | 0.00 | 1011.2 | ||
| 20260831104552 | 54 | 114 | 0.0 | 0.0 | 0.00 | 0.00 | 0.00 | 3 | 1011.1 |
| 20260831103046 | 54 | 115 | 0.0 | 0.0 | 0.00 | 0.00 | 0.00 | 3 | 1011.0 |
| 20260831101543 | 55 | 114 | 0.0 | 0.0 | 0.00 | 0.00 | 0.00 | 3 | 1010.9 |
| 20260831100022 | 55 | 115 | 0.0 | 0.0 | 0.00 | 0.00 | 0.00 | 3 | 1010.8 |
| 20260831094517 | 56 | 115 | 0.0 | 0.0 | 0.00 | 0.00 | 0.00 | 3 | 1010.8 |
| 20260831093055 | 56 | 113 | 0.0 | 0.0 | 0.00 | 0.00 | 0.00 | 3 | 1010.6 |
| 20260831091601 | 56 | 115 | 0.0 | 0.0 | 0.00 | 0.00 | 0.00 | 3 | 1010.6 |
| 20260831090033 | 56 | 115 | 0.0 | 0.0 | 0.00 | 0.00 | 0.00 | 3 | 1010.7 |
| 20260831084524 | 56 | 114 | 0.0 | 0.0 | 0.00 | 0.00 | 0.00 | 3 | 1011.0 |
| 20260831083005 | 57 | 147 | 0.0 | 0.0 | 0.00 | 0.00 | 0.00 | 3 | 1011.1 |
| 20260831081558 | 57 | 147 | 0.0 | 0.0 | 0.00 | 0.00 | 0.00 | 3 | 1010.9 |
| 20260831080035 | 58 | 146 | 0.0 | 0.0 | 0.00 | 0.00 | 0.00 | 3 | 1010.9 |
| 20260831074531 | 58 | 146 | 0.0 | 0.0 | 0.00 | 0.00 | 0.00 | 3 | 1011.1 |
| 20260831073014 | 59 | 146 | 0.0 | 0.0 | 0.00 | 0.00 | 0.00 | 3 | 1011.1 |
| 20260831071505 | 59 | 148 | 0.0 | 0.0 | 0.00 | 0.00 | 0.00 | 3 | 1011.1 |
| 20260831070043 | 59 | 226 | 0.0 | 0.0 | 0.00 | 0.00 | 0.00 | 3 | 1011.0 |
| 20260831064540 | 59 | 198 | 0.0 | 0.0 | 0.00 | 0.00 | 0.00 | 3 | 1010.9 |
| 20260831063021 | 60 | 207 | 0.0 | 0.0 | 0.00 | 0.00 | 0.00 | 3 | 1010.9 |
| 20260831061517 | 60 | 167 | 0.0 | 0.0 | 0.00 | 0.00 | 0.00 | 3 | 1011.0 |
| 20260831060107 | 60 | 211 | 0.0 | 0.0 | 0.00 | 0.00 | 0.00 | 3 | 1011.0 |
| 20260831054551 | 61 | 150 | 0.0 | 0.0 | 0.00 | 0.00 | 0.00 | 3 | 1010.9 |
| 20260831053032 | 61 | 225 | 0.0 | 0.0 | 0.00 | 0.00 | 0.00 | 3 | 1010.9 |
| 20260831051528 | 61 | 231 | 0.0 | 1.0 | 0.00 | 0.00 | 0.00 | 3 | 1010.8 |
| 20260831050002 | 62 | 223 | 0.0 | 1.0 | 0.00 | 0.00 | 0.00 | 3 | 1010.9 |
| 20260831044605 | 62 | 257 | 0.0 | 1.0 | 0.00 | 0.00 | 0.00 | 3 | 1010.9 |
| 20260831043037 | 62 | 205 | 0.0 | 3.0 | 0.00 | 0.00 | 0.00 | 3 | 1010.8 |
| 20260831041613 | 62 | 195 | 0.0 | 1.0 | 0.00 | 0.00 | 0.00 | 3 | 1010.6 |
| 20260831040011 | 62 | 176 | 0.0 | 2.0 | 0.00 | 0.00 | 0.00 | 3 | 1010.3 |
| 20260831034507 | 62 | 259 | 0.0 | 0.0 | 0.00 | 0.00 | 0.00 | 27 | 1010.3 |
| 20260831033044 | 62 | 162 | 0.0 | 0.0 | 0.00 | 0.00 | 0.00 | 46 | 1010.3 |
| 20260831031540 | 63 | 243 | 0.0 | 1.0 | 0.00 | 0.00 | 0.00 | 50 | 1010.1 |
| 20260831030017 | 64 | 153 | 0.0 | 1.0 | 0.00 | 0.00 | 0.00 | 56 | 1010.0 |
| 20260831024513 | 64 | 222 | 0.0 | 2.0 | 0.00 | 0.00 | 0.00 | 62 | 1010.0 |
| 20260831023052 | 66 | 201 | 0.0 | 8.0 | 0.00 | 0.00 | 0.00 | 64 | 1010.1 |
| 20260831021552 | 68 | 190 | 0.0 | 5.0 | 0.00 | 0.00 | 0.00 | 62 | 1010.1 |
| 20260831020026 | 71 | 243 | 0.0 | 5.0 | 0.00 | 0.00 | 0.00 | 58 | 1010.2 |
| 20260831014523 | 72 | 203 | 0.0 | 5.0 | 0.00 | 0.00 | 0.00 | 56 | 1010.3 |
| 20260831013117 | 73 | 218 | 0.0 | 5.0 | 0.00 | 0.00 | 0.00 | 54 | 1010.2 |
| 20260831011557 | 74 | 152 | 0.0 | 2.0 | 0.00 | 0.00 | 0.00 | 53 | 1010.3 |
| 20260831010116 | 74 | 181 | 0.0 | 6.0 | 0.00 | 0.00 | 0.00 | 52 | 1010.3 |
| 20260831004535 | 74 | 221 | 0.0 | 7.0 | 0.00 | 0.00 | 0.00 | 52 | 1010.4 |
| 20260831003034 | 75 | 166 | 0.0 | 5.0 | 0.00 | 0.00 | 0.00 | 51 | 1010.4 |
| 20260831001525 | 76 | 181 | 0.0 | 6.0 | 0.00 | 0.00 | 0.00 | 51 | 1010.5 |
| 20260831000021 | 77 | 221 | 0.0 | 3.0 | 0.00 | 0.00 | 0.00 | 49 | 1010.6 |
| 20260830234516 | 78 | 208 | 0.0 | 6.0 | 0.00 | 0.00 | 0.00 | 49 | 1010.6 |
| 20260830233020 | 79 | 242 | 0.0 | 7.0 | 0.00 | 0.00 | 0.00 | 47 | 1010.5 |
| 20260830231508 | 79 | 207 | 0.0 | 7.0 | 0.00 | 0.00 | 0.00 | 47 | 1010.6 |
| 20260830230001 | 81 | 201 | 0.0 | 6.0 | 0.00 | 0.00 | 0.00 | 46 | 1010.6 |
| 20260830224540 | 81 | 245 | 0.0 | 2.0 | 0.00 | 0.00 | 0.00 | 46 | 1010.6 |
| 20260830223045 | 82 | 267 | 0.0 | 3.0 | 0.00 | 0.00 | 0.00 | 46 | 1010.6 |
| 20260830221513 | 82 | 146 | 0.0 | 1.0 | 0.00 | 0.00 | 0.00 | 46 | 1010.8 |
| 20260830220009 | 82 | 224 | 0.0 | 1.0 | 0.00 | 0.00 | 0.00 | 45 | 1011.0 |
| 20260830214552 | 83 | 122 | 0.0 | 1.0 | 0.00 | 0.00 | 0.00 | 44 | 1011.2 |
| 20260830213049 | 84 | 245 | 0.0 | 1.0 | 0.00 | 0.00 | 0.00 | 44 | 1011.4 |
| 20260830211543 | 83 | 214 | 0.0 | 2.0 | 0.00 | 0.00 | 0.00 | 44 | 1011.4 |
| 20260830210038 | 83 | 257 | 0.0 | 1.0 | 0.00 | 0.00 | 0.00 | 45 | 1011.4 |
| 20260830204536 | 82 | 215 | 0.0 | 3.0 | 0.00 | 0.00 | 0.00 | 45 | 1011.7 |
| 20260830203034 | 81 | 214 | 0.0 | 0.0 | 0.00 | 0.00 | 0.00 | 47 | 1011.8 |
| 20260830201524 | 81 | 218 | 0.0 | 0.0 | 0.00 | 0.00 | 0.00 | 48 | 1012.0 |
| 20260830200020 | 79 | 175 | 0.0 | 0.0 | 0.00 | 0.00 | 0.00 | 50 | 1012.3 |
| 20260830194607 | 78 | 193 | 0.0 | 0.0 | 0.00 | 0.00 | 0.00 | 51 | 1012.4 |
| 20260830193103 | 78 | 211 | 0.0 | 1.0 | 0.00 | 0.00 | 0.00 | 51 | 1012.5 |
| 20260830191534 | 78 | 215 | 0.0 | 0.0 | 0.00 | 0.00 | 0.00 | 51 | 1012.7 |
| 20260830190029 | 75 | 253 | 0.0 | 0.0 | 0.00 | 0.00 | 0.00 | 54 | 1012.7 |